Total_Precipitation_Accumulation
0.68 0.29 0.10 0.04 0.06 0.06 0.01 0.01 0.00 0.00 0.00 0.00 0.00 0.00 0.00 0.00 0.00 0.00 0.00 0.00 0.01 0.03 0.02 0.02 0.02 0.02 0.01 0.01 0.00 0.00 0.00 0.01 0.01 0.02 0.04 0.06 0.05 0.04 0.03 0.03 0.05 0.06 0.09
1.43 1.22 0.71 0.18 0.10 0.02 0.01 0.00 0.00 0.00 0.00 0.00 0.00 0.00 0.00 0.00 0.00 0.00 0.00 0.00 0.01 0.01 0.01 0.01 0.01 0.01 0.01 0.00 0.00 0.00 0.00 0.00 0.00 0.01 0.02 0.03 0.04 0.03 0.02 0.01 0.03 0.03 0.04
0.85 2.20 1.72 0.84 0.36 0.15 0.07 0.01 0.01 0.00 0.00 0.00 0.00 0.01 0.01 0.01 0.01 0.00 0.00 0.00 0.00 0.00 0.00 0.00 0.00 0.01 0.01 0.00 0.00 0.00 0.00 0.00 0.00 0.00 0.00 0.00 0.01 0.01 0.01 0.00 0.00 0.00 0.01
0.11 0.59 1.73 1.35 0.71 0.42 0.16 0.06 0.03 0.05 0.04 0.01 0.01 0.00 0.01 0.03 0.03 0.02 0.01 0.00 0.00 0.00 0.00 0.01 0.01 0.01 0.00 0.00 0.00 0.00 0.00 0.00 0.00 0.00 0.00 0.01 0.02 0.04 0.03 0.03 0.02 0.02 0.01
0.35 0.36 0.42 0.66 0.82 0.77 0.30 0.13 0.09 0.08 0.07 0.05 0.05 0.01 0.00 0.03 0.02 0.03 0.01 0.00 0.00 0.00 0.00 0.01 0.01 0.01 0.00 0.00 0.00 0.00 0.00 0.00 0.00 0.00 0.00 0.00 0.01 0.02 0.02 0.02 0.02 0.02 0.02
0.91 0.80 0.77 0.45 0.42 1.00 0.97 0.40 0.22 0.12 0.06 0.09 0.09 0.03 0.02 0.03 0.02 0.01 0.01 0.00 0.01 0.01 0.01 0.01 0.01 0.00 0.00 0.00 0.00 0.00 0.00 0.00 0.00 0.00 0.00 0.00 0.00 0.01 0.00 0.01 0.01 0.01 0.01
0.93 1.34 1.75 2.15 1.29 0.76 1.37 1.36 0.79 0.61 0.28 0.15 0.06 0.02 0.01 0.02 0.02 0.01 0.00 0.01 0.02 0.02 0.01 0.00 0.00 0.00 0.00 0.00 0.00 0.00 0.00 0.00 0.00 0.00 0.00 0.00 0.00 0.01 0.01 0.01 0.01 0.01 0.01
0.42 1.76 2.41 2.49 2.32 2.04 1.04 2.33 2.34 1.71 0.90 0.26 0.05 0.04 0.01 0.01 0.02 0.02 0.01 0.01 0.02 0.01 0.00 0.00 0.00 0.00 0.00 0.00 0.00 0.00 0.00 0.00 0.00 0.00 0.00 0.00 0.00 0.00 0.01 0.00 0.00 0.00 0.00
0.53 2.19 3.06 3.04 1.92 2.39 2.42 2.01 2.44 2.42 1.81 0.83 0.10 0.04 0.01 0.00 0.02 0.03 0.02 0.01 0.01 0.00 0.00 0.00 0.00 0.00 0.00 0.00 0.00 0.00 0.00 0.00 0.00 0.00 0.00 0.00 0.00 0.00 0.00 0.00 0.00 0.00 0.00
0.37 1.54 3.30 4.73 3.64 1.69 1.90 1.77 2.44 3.21 2.32 1.66 0.26 0.09 0.02 0.00 0.01 0.02 0.03 0.01 0.01 0.00 0.00 0.00 0.00 0.00 0.00 0.00 0.00 0.00 0.00 0.00 0.00 0.00 0.00 0.00 0.01 0.00 0.00 0.00 0.00 0.00 0.00
0.48 0.66 1.63 4.97 3.68 2.03 1.38 1.18 1.37 2.86 2.97 1.86 0.56 0.35 0.11 0.01 0.03 0.02 0.06 0.04 0.01 0.00 0.00 0.00 0.00 0.00 0.00 0.00 0.00 0.00 0.00 0.00 0.00 0.00 0.00 0.00 0.00 0.00 0.00 0.00 0.00 0.00 0.00
0.37 0.49 0.84 2.26 2.80 2.02 1.27 1.08 0.85 1.48 2.30 2.00 0.73 0.41 0.22 0.10 0.05 0.03 0.08 0.06 0.00 0.00 0.00 0.00 0.00 0.00 0.00 0.00 0.00 0.00 0.00 0.00 0.00 0.00 0.00 0.01 0.00 0.00 0.01 0.00 0.00 0.00 0.00
0.34 0.34 0.52 1.07 1.35 1.83 1.42 1.13 1.07 1.07 1.08 1.83 0.67 0.24 0.23 0.21 0.10 0.10 0.06 0.05 0.00 0.00 0.00 0.00 0.00 0.00 0.00 0.00 0.00 0.00 0.00 0.00 0.00 0.00 0.00 0.01 0.01 0.01 0.01 0.00 0.00 0.00 0.00
0.17 0.17 0.39 0.40 0.48 0.80 1.16 1.09 0.77 0.87 0.93 0.79 0.47 0.18 0.19 0.13 0.08 0.05 0.03 0.02 0.00 0.00 0.00 0.00 0.00 0.00 0.00 0.00 0.00 0.00 0.00 0.00 0.00 0.00 0.00 0.00 0.00 0.00 0.01 0.00 0.00 0.00 0.00
0.10 0.18 0.24 0.29 0.21 0.35 0.60 0.85 0.84 0.51 0.59 0.57 0.40 0.14 0.13 0.07 0.09 0.10 0.02 0.01 0.00 0.00 0.00 0.00 0.00 0.00 0.00 0.00 0.00 0.00 0.00 0.00 0.00 0.00 0.00 0.00 0.00 0.01 0.02 0.01 0.00 0.00 0.00
0.19 0.15 0.12 0.16 0.17 0.24 0.56 0.74 0.88 0.70 0.43 0.45 0.28 0.11 0.06 0.05 0.07 0.08 0.04 0.02 0.00 0.00 0.00 0.00 0.00 0.00 0.00 0.00 0.00 0.00 0.00 0.00 0.00 0.00 0.00 0.00 0.00 0.01 0.02 0.02 0.00 0.00 0.00
0.36 0.22 0.23 0.19 0.28 0.30 0.37 0.48 0.72 0.78 0.63 0.45 0.19 0.05 0.03 0.03 0.04 0.04 0.03 0.01 0.00 0.00 0.00 0.00 0.00 0.00 0.00 0.00 0.00 0.00 0.00 0.00 0.00 0.00 0.00 0.00 0.00 0.00 0.01 0.01 0.00 0.00 0.00
0.30 0.52 0.19 0.19 0.57 0.43 0.37 0.36 0.43 0.73 0.76 0.53 0.19 0.05 0.03 0.01 0.02 0.03 0.02 0.01 0.00 0.00 0.00 0.00 0.00 0.00 0.00 0.00 0.00 0.00 0.00 0.00 0.00 0.00 0.00 0.00 0.00 0.00 0.00 0.01 0.00 0.00 0.00
0.04 0.48 0.50 0.25 0.32 0.48 0.45 0.37 0.40 0.53 0.64 0.51 0.20 0.06 0.03 0.01 0.01 0.03 0.08 0.05 0.01 0.01 0.00 0.00 0.00 0.00 0.00 0.00 0.00 0.00 0.00 0.00 0.00 0.00 0.00 0.00 0.00 0.00 0.00 0.00 0.00 0.00 0.00
0.00 0.05 0.31 0.36 0.32 0.29 0.32 0.28 0.36 0.48 0.53 0.37 0.16 0.06 0.03 0.01 0.04 0.04 0.01 0.02 0.01 0.00 0.00 0.00 0.00 0.00 0.00 0.00 0.00 0.00 0.00 0.00 0.00 0.00 0.00 0.00 0.00 0.00 0.00 0.00 0.00 0.00 0.00
0.00 0.02 0.05 0.21 0.19 0.32 0.28 0.18 0.20 0.26 0.39 0.20 0.08 0.04 0.03 0.03 0.10 0.06 0.02 0.02 0.01 0.01 0.01 0.01 0.00 0.00 0.00 0.00 0.00 0.00 0.00 0.00 0.00 0.00 0.00 0.00 0.00 0.00 0.00 0.00 0.01 0.00 0.00
0.00 0.01 0.01 0.03 0.08 0.16 0.22 0.23 0.09 0.09 0.11 0.08 0.03 0.07 0.06 0.10 0.07 0.07 0.05 0.04 0.03 0.02 0.00 0.01 0.00 0.00 0.00 0.00 0.00 0.00 0.00 0.00 0.00 0.00 0.00 0.00 0.00 0.00 0.00 0.00 0.00 0.00 0.00
0.00 0.01 0.01 0.00 0.02 0.05 0.13 0.23 0.16 0.11 0.08 0.07 0.03 0.04 0.05 0.08 0.04 0.06 0.04 0.03 0.04 0.03 0.01 0.00 0.00 0.00 0.00 0.00 0.00 0.00 0.00 0.00 0.00 0.00 0.00 0.00 0.00 0.00 0.00 0.00 0.00 0.00 0.00
0.00 0.00 0.01 0.01 0.00 0.01 0.03 0.06 0.05 0.07 0.05 0.01 0.00 0.02 0.03 0.04 0.08 0.17 0.07 0.02 0.01 0.01 0.02 0.04 0.02 0.02 0.01 0.01 0.01 0.01 0.00 0.03 0.09 0.08 0.01 0.00 0.00 0.00 0.00 0.00 0.00 0.00 0.00
0.00 0.00 0.01 0.01 0.00 0.00 0.01 0.01 0.01 0.01 0.01 0.01 0.01 0.01 0.01 0.05 0.07 0.09 0.09 0.06 0.04 0.06 0.09 0.15 0.12 0.12 0.13 0.21 0.13 0.03 0.01 0.00 0.01 0.10 0.10 0.05 0.01 0.00 0.00 0.00 0.00 0.00 0.00
0.00 0.00 0.00 0.01 0.01 0.00 0.00 0.00 0.00 0.02 0.01 0.00 0.00 0.00 0.03 0.03 0.17 0.20 0.17 0.16 0.17 0.19 0.22 0.26 0.33 0.25 0.18 0.17 0.26 0.14 0.13 0.13 0.08 0.06 0.05 0.06 0.10 0.05 0.02 0.03 0.04 0.03 0.02